z/d,0,0,50,50,100,100,150,150,200,200,300,300,400,400,500,500,600,600,750,750,1000,1000,1250,1250,1500,1500,1750,1750,1900,1900,2000,2000
2019.01.05-01:00,.91,259.93,1.05,260.55,1.06,261.77,1.07,274.69,1.12,281.34,1.08,282.80,1.00,281.99,.88,281.99,.82,284.31,.76,286.76,.69,288.10,.62,280.85,.44,264.70,.46,246.40,.62,238.82,.21,211.39
2019.01.05-02:00,.93,259.01,1.09,260.11,1.11,260.98,1.10,272.01,1.14,279.66,1.10,281.56,1.05,282.69,.92,280.93,.86,282.30,.78,282.24,.68,285.64,.63,276.86,.49,259.04,.52,245.25,.66,238.58,.21,212.44
2019.01.05-03:00,1.03,260.31,1.17,261.53,1.19,262.53,1.17,271.67,1.19,279.10,1.12,281.03,1.07,283.61,.95,280.56,.87,280.54,.80,278.17,.67,282.10,.64,272.20,.54,254.74,.57,244.38,.69,237.99,.21,212.72
2019.01.05-04:00,1.15,261.37,1.25,262.84,1.27,264.68,1.25,273.30,1.23,279.96,1.14,281.28,1.06,284.66,.96,280.85,.87,279.23,.80,275.07,.67,277.63,.65,267.66,.59,252.03,.61,243.61,.71,237.26,.21,212.66
2019.01.05-05:00,1.25,260.49,1.32,262.83,1.35,266.67,1.30,275.87,1.24,281.69,1.14,281.92,1.03,285.48,.96,281.40,.87,278.36,.80,272.79,.68,273.15,.67,263.99,.62,250.61,.62,242.89,.71,236.50,.20,212.27
2019.01.05-06:00,1.35,258.38,1.42,263.00,1.42,269.41,1.32,278.65,1.21,283.69,1.13,282.77,.99,285.78,.94,281.94,.87,278.09,.79,271.26,.70,269.22,.68,260.94,.63,249.54,.62,241.94,.69,235.43,.20,210.87
2019.01.05-07:00,1.45,258.98,1.51,264.33,1.46,272.57,1.31,280.86,1.17,285.08,1.12,283.35,.94,285.00,.90,281.73,.86,278.06,.78,270.04,.71,266.06,.68,258.63,.63,248.94,.61,241.68,.66,234.95,.19,209.93
2019.01.05-08:00,1.52,263.18,1.57,267.03,1.46,275.50,1.28,282.25,1.12,285.19,1.08,283.16,.89,282.58,.85,280.02,.82,277.46,.76,268.63,.72,263.70,.68,257.26,.63,249.39,.61,242.89,.64,235.82,.18,210.65
2019.01.05-09:00,1.56,267.73,1.62,270.18,1.46,277.60,1.26,283.69,1.07,284.50,1.04,282.68,.86,278.87,.80,276.62,.79,275.44,.77,266.68,.74,261.77,.70,256.50,.64,250.42,.60,244.71,.62,237.24,.18,211.88
2019.01.05-10:00,1.52,272.06,1.60,274.15,1.44,278.87,1.22,285.25,1.04,283.11,1.00,281.72,.86,274.68,.80,271.86,.77,271.54,.79,264.38,.77,260.30,.73,256.47,.65,252.00,.60,246.80,.61,239.00,.18,213.69
2019.01.05-11:00,1.42,275.87,1.53,277.90,1.40,279.41,1.17,285.49,1.05,281.18,.99,279.58,.90,271.07,.83,267.15,.78,266.60,.83,262.23,.80,259.58,.77,257.17,.67,253.87,.60,248.72,.60,240.65,.18,215.41
2019.01.05-12:00,1.37,278.97,1.46,280.51,1.38,279.83,1.13,283.10,1.08,278.90,1.01,276.68,.97,268.72,.90,264.06,.83,262.41,.88,260.57,.85,259.64,.80,258.12,.68,255.40,.61,249.82,.60,241.44,.18,216.91
2019.01.05-13:00,1.32,279.91,1.40,281.26,1.36,279.51,1.14,278.71,1.12,276.44,1.04,273.89,1.03,267.55,.98,262.90,.90,259.96,.95,259.70,.89,260.34,.82,259.04,.68,256.36,.61,250.14,.61,241.37,.18,218.88
2019.01.05-14:00,1.20,278.99,1.33,281.37,1.32,279.18,1.19,275.26,1.18,275.05,1.08,271.54,1.09,267.06,1.06,263.03,.97,259.23,1.01,259.61,.92,261.15,.83,259.62,.68,256.41,.63,249.67,.62,240.66,.18,221.23
2019.01.05-15:00,1.13,276.78,1.27,280.06,1.27,278.05,1.23,273.67,1.22,274.97,1.11,270.05,1.12,266.84,1.12,263.98,1.04,259.95,1.06,260.35,.93,261.86,.82,260.01,.68,255.84,.64,248.97,.64,240.07,.18,223.74
2019.01.05-16:00,1.12,272.80,1.25,276.95,1.27,275.74,1.28,273.26,1.24,275.22,1.15,269.33,1.14,266.65,1.15,265.32,1.09,261.58,1.09,261.82,.92,262.51,.80,260.38,.66,255.00,.64,248.28,.65,239.82,.18,225.46
2019.01.05-17:00,1.18,267.80,1.28,272.46,1.31,272.94,1.30,273.19,1.24,275.10,1.18,269.03,1.17,266.68,1.16,266.88,1.11,263.62,1.09,263.91,.89,263.32,.77,261.01,.63,254.36,.62,247.77,.63,239.87,.17,225.95
2019.01.05-18:00,1.30,264.82,1.38,269.02,1.38,271.40,1.32,273.44,1.24,274.97,1.21,269.43,1.19,267.50,1.16,268.75,1.11,265.80,1.06,266.44,.85,264.21,.72,261.60,.59,253.52,.58,246.74,.59,239.49,.16,224.73
2019.01.05-19:00,1.45,266.04,1.49,268.91,1.43,272.10,1.33,274.11,1.23,274.87,1.23,270.45,1.19,268.71,1.14,270.56,1.09,267.76,1.03,269.05,.81,265.02,.67,261.87,.55,252.51,.54,245.14,.55,238.67,.15,222.51
2019.01.05-20:00,1.60,269.58,1.61,271.29,1.47,273.91,1.33,275.35,1.22,274.85,1.24,272.18,1.18,269.97,1.09,271.93,1.06,269.19,.98,271.20,.76,265.54,.62,261.73,.52,251.97,.50,243.84,.52,238.28,.14,221.04
2019.01.05-21:00,1.70,273.94,1.69,275.14,1.50,276.12,1.32,277.05,1.21,274.78,1.25,274.42,1.16,271.23,1.05,272.58,1.04,270.02,.94,272.32,.73,265.50,.59,260.97,.51,252.01,.48,243.05,.49,238.29,.14,220.40
2019.01.05-22:00,1.72,277.85,1.71,278.97,1.51,278.02,1.31,278.62,1.22,274.75,1.24,276.50,1.16,272.56,1.02,272.48,1.03,270.57,.90,272.13,.71,264.82,.58,259.86,.51,252.81,.48,243.34,.49,239.12,.14,221.09
2019.01.05-23:00,1.69,280.21,1.67,281.40,1.50,278.60,1.30,278.80,1.25,274.62,1.25,277.54,1.18,273.90,1.04,272.13,1.04,271.24,.88,270.63,.70,263.77,.59,258.98,.53,254.18,.49,244.95,.49,240.98,.14,223.16
2019.01.05-24:00,1.64,280.85,1.62,282.13,1.49,278.05,1.31,277.78,1.29,274.87,1.27,278.01,1.22,275.34,1.08,272.41,1.06,272.22,.88,268.31,.72,262.15,.62,257.86,.56,255.05,.52,247.06,.50,243.23,.14,226.02
2019.01.06-01:00,1.61,280.66,1.60,282.30,1.51,277.85,1.35,277.12,1.35,276.18,1.30,278.70,1.26,276.91,1.14,273.57,1.08,273.14,.90,265.62,.76,259.79,.66,255.96,.60,254.61,.55,248.64,.53,244.88,.14,228.80
2019.01.06-02:00,1.62,281.23,1.60,283.21,1.56,279.09,1.44,277.63,1.44,278.23,1.35,279.64,1.30,278.28,1.20,275.22,1.09,273.52,.93,263.11,.80,257.10,.71,253.51,.63,253.01,.59,249.31,.57,245.60,.15,230.60
2019.01.06-03:00,1.61,282.12,1.59,284.25,1.58,280.66,1.52,278.56,1.51,280.08,1.40,280.43,1.34,279.30,1.24,276.78,1.10,273.26,.97,261.54,.85,255.11,.76,251.72,.67,251.59,.63,249.92,.60,246.41,.16,232.13
2019.01.06-04:00,1.58,281.05,1.56,283.30,1.58,280.49,1.57,278.79,1.56,281.07,1.42,280.82,1.36,280.22,1.25,277.72,1.09,272.46,1.00,261.06,.89,254.28,.80,251.42,.70,251.43,.66,251.22,.63,248.09,.16,234.26
2019.01.06-05:00,1.60,279.10,1.58,281.20,1.61,279.59,1.59,279.09,1.56,281.74,1.40,280.84,1.34,280.84,1.22,278.01,1.07,271.27,1.00,261.04,.92,254.23,.84,252.25,.73,252.31,.67,252.76,.64,250.19,.16,236.25
2019.01.06-06:00,1.68,277.10,1.65,279.51,1.68,279.21,1.60,279.77,1.54,282.03,1.36,280.44,1.29,280.71,1.16,277.79,1.04,270.06,.99,261.13,.93,254.61,.86,253.76,.73,253.79,.67,254.14,.64,252.16,.16,237.19
2019.01.06-07:00,1.79,276.67,1.76,279.40,1.73,279.79,1.59,280.44,1.49,281.58,1.32,279.58,1.24,279.57,1.09,276.70,1.02,268.79,.98,261.11,.93,255.29,.86,255.70,.72,255.67,.65,255.48,.62,253.92,.15,237.26
2019.01.06-08:00,1.89,277.69,1.87,280.88,1.77,281.11,1.58,280.66,1.45,280.36,1.29,278.30,1.20,277.45,1.04,274.40,1.00,267.29,.96,260.89,.92,256.23,.84,257.84,.69,257.95,.62,257.02,.59,255.68,.14,236.95
2019.01.06-09:00,1.99,279.01,1.97,282.81,1.80,282.55,1.56,280.40,1.42,278.81,1.27,276.81,1.18,274.91,1.00,271.23,1.00,265.79,.96,260.69,.92,257.38,.81,259.86,.66,260.45,.59,258.87,.56,257.56,.14,236.94
2019.01.06-10:00,2.06,279.81,2.04,284.17,1.84,283.77,1.57,280.34,1.41,277.77,1.27,275.59,1.19,273.02,1.00,267.85,1.00,264.51,.96,260.49,.92,258.62,.79,261.30,.63,262.51,.56,260.64,.54,259.11,.13,236.91
2019.01.06-11:00,2.10,280.46,2.08,285.14,1.88,284.89,1.60,281.17,1.43,277.90,1.28,274.95,1.21,272.54,1.03,265.09,1.02,263.56,.98,260.13,.93,259.96,.79,261.96,.62,263.36,.54,261.66,.52,259.59,.13,236.44
2019.01.06-12:00,2.10,281.89,2.09,286.55,1.89,286.41,1.63,282.86,1.46,279.03,1.29,274.48,1.24,272.86,1.09,263.49,1.06,263.03,1.01,259.72,.95,261.27,.80,262.08,.62,262.77,.54,261.36,.53,258.56,.13,235.29
2019.01.06-13:00,2.07,284.06,2.06,288.28,1.89,288.31,1.66,285.02,1.50,280.81,1.32,273.85,1.25,272.74,1.16,263.11,1.10,262.96,1.06,259.67,.97,262.34,.83,262.03,.63,261.32,.55,259.89,.54,256.40,.14,234.02
2019.01.06-14:00,2.02,285.90,2.01,289.07,1.83,289.21,1.64,286.11,1.51,282.01,1.36,272.80,1.26,271.60,1.24,263.73,1.15,263.49,1.10,260.42,.98,263.41,.84,262.36,.66,260.20,.57,258.38,.57,254.43,.15,233.59
2019.01.06-15:00,1.96,286.38,1.95,289.02,1.75,288.91,1.61,285.75,1.53,282.42,1.41,272.03,1.28,269.99,1.31,265.24,1.20,264.62,1.14,261.81,.98,264.40,.85,262.81,.67,259.28,.58,256.72,.59,252.57,.15,233.16
2019.01.06-16:00,1.91,286.14,1.90,288.67,1.67,287.62,1.60,284.25,1.55,282.21,1.47,271.96,1.33,268.43,1.37,267.29,1.24,266.14,1.16,263.55,.96,265.24,.84,263.21,.68,258.51,.59,254.94,.61,250.87,.15,232.20
2019.01.06-17:00,1.91,285.26,1.89,287.27,1.67,284.76,1.64,282.15,1.58,281.46,1.52,272.48,1.37,267.40,1.40,269.60,1.25,267.76,1.15,265.40,.93,266.02,.81,263.65,.66,258.24,.57,253.60,.60,249.79,.15,231.08
2019.01.06-18:00,1.96,284.20,1.94,285.64,1.72,282.01,1.69,281.00,1.60,281.13,1.54,273.92,1.41,267.33,1.39,272.29,1.22,269.14,1.11,267.01,.88,266.52,.76,263.89,.62,258.34,.54,252.77,.57,249.23,.14,229.74
2019.01.06-19:00,2.02,283.93,2.02,285.10,1.81,281.04,1.75,281.52,1.61,281.93,1.54,276.49,1.45,268.74,1.34,275.23,1.19,270.36,1.06,268.30,.82,266.48,.70,263.54,.58,258.39,.51,252.17,.54,248.69,.13,227.78
2019.01.06-20:00,2.07,284.09,2.08,285.42,1.88,281.53,1.77,283.16,1.60,283.37,1.51,279.60,1.49,271.94,1.28,277.82,1.16,271.82,1.01,269.44,.77,266.09,.66,262.61,.54,258.34,.47,251.96,.50,248.07,.13,225.46
2019.01.06-21:00,2.08,284.02,2.10,285.76,1.91,282.49,1.76,284.87,1.55,284.41,1.46,282.24,1.52,276.43,1.21,279.49,1.13,273.73,.97,270.68,.74,265.97,.62,261.64,.51,258.64,.44,252.84,.46,247.99,.12,223.87
2019.01.06-22:00,2.06,283.44,2.08,285.49,1.92,283.04,1.73,285.78,1.50,284.31,1.42,283.62,1.52,281.15,1.17,280.31,1.11,276.01,.94,272.07,.72,266.43,.61,260.96,.49,259.26,.42,254.82,.44,248.56,.11,223.36
2019.01.06-23:00,2.04,282.97,2.06,285.02,1.94,283.33,1.73,285.89,1.49,283.41,1.39,283.64,1.49,284.94,1.15,280.77,1.10,278.31,.92,273.28,.72,266.78,.62,260.04,.48,259.20,.41,256.45,.43,248.72,.11,223.07
2019.01.06-24:00,2.04,282.61,2.05,284.32,1.98,283.48,1.76,285.31,1.54,282.27,1.40,282.55,1.46,287.21,1.15,280.99,1.08,280.29,.92,274.15,.72,266.49,.64,258.76,.49,258.34,.42,257.20,.44,248.32,.12,223.25
2019.01.07-01:00,2.04,281.82,2.06,283.37,2.03,283.40,1.82,284.48,1.63,281.44,1.45,281.03,1.41,287.83,1.16,280.73,1.07,281.52,.92,274.41,.74,265.52,.67,257.46,.52,257.41,.45,257.68,.47,248.25,.13,224.79
2019.01.07-02:00,2.06,280.88,2.08,282.23,2.07,283.10,1.88,283.95,1.73,281.29,1.52,279.92,1.35,286.59,1.16,279.95,1.05,281.61,.93,273.77,.76,264.01,.72,256.53,.56,257.05,.48,258.47,.51,249.17,.14,227.74
2019.01.07-03:00,2.10,279.91,2.12,281.14,2.11,282.75,1.92,283.63,1.81,281.66,1.58,279.78,1.28,283.54,1.16,278.86,1.03,280.51,.93,272.09,.79,262.19,.77,256.29,.60,257.67,.52,259.93,.56,251.27,.15,231.87
2019.01.07-04:00,2.15,279.45,2.17,280.64,2.15,282.82,1.95,283.45,1.86,282.38,1.63,280.40,1.25,279.51,1.16,277.76,1.01,278.28,.93,269.57,.81,260.30,.81,256.56,.64,258.96,.55,261.62,.60,253.92,.15,236.22
2019.01.07-05:00,2.21,279.44,2.23,280.46,2.19,283.05,1.97,283.32,1.89,283.22,1.65,281.45,1.25,275.91,1.15,276.92,.99,275.22,.94,266.84,.83,258.67,.83,257.13,.66,260.61,.57,263.23,.62,256.70,.15,240.06
2019.01.07-06:00,2.29,279.73,2.30,280.53,2.24,283.21,1.99,283.06,1.89,283.82,1.65,282.55,1.27,273.85,1.13,276.03,.99,271.93,.96,264.53,.84,257.52,.83,257.91,.65,262.54,.56,264.74,.62,259.40,.15,243.04
2019.01.07-07:00,2.36,280.30,2.38,280.96,2.28,283.30,2.02,282.73,1.87,283.93,1.61,283.50,1.29,273.51,1.11,274.94,1.00,269.22,.97,263.01,.83,256.88,.81,258.88,.63,264.67,.54,266.13,.59,261.90,.14,245.25
2019.01.07-08:00,2.41,281.15,2.43,281.79,2.32,283.51,2.05,282.63,1.86,283.55,1.57,284.25,1.30,274.11,1.10,273.59,1.02,267.42,.99,262.25,.83,256.61,.78,259.86,.59,266.67,.50,267.28,.56,263.96,.13,246.37
2019.01.07-09:00,2.47,281.96,2.49,282.62,2.37,283.83,2.12,283.02,1.88,283.22,1.51,284.82,1.30,274.84,1.09,272.10,1.03,266.51,.99,262.20,.83,256.69,.74,260.61,.55,267.84,.46,267.55,.51,265.03,.11,245.69
2019.01.07-10:00,2.52,282.98,2.54,283.60,2.42,284.53,2.18,284.08,1.93,283.48,1.45,284.64,1.31,275.43,1.09,270.47,1.03,266.02,1.00,262.66,.83,257.20,.72,261.00,.51,267.56,.43,266.29,.47,264.54,.11,242.92
2019.01.07-11:00,2.53,284.56,2.56,285.09,2.44,285.61,2.21,285.51,1.97,284.25,1.39,282.76,1.34,275.81,1.10,268.59,1.04,265.25,1.01,263.20,.85,258.24,.72,261.31,.49,266.08,.41,263.90,.45,262.86,.11,239.81
2019.01.07-12:00,2.50,286.50,2.53,286.83,2.43,286.61,2.18,286.39,1.97,284.81,1.36,278.99,1.36,275.59,1.13,266.72,1.08,264.11,1.04,263.68,.88,259.82,.74,261.93,.50,264.38,.42,261.65,.45,261.02,.11,238.05
2019.01.07-13:00,2.45,288.53,2.47,288.62,2.40,287.60,2.13,286.26,1.96,284.76,1.39,274.42,1.37,274.24,1.19,265.40,1.14,263.33,1.08,264.29,.91,261.52,.76,262.65,.51,262.42,.44,259.53,.46,258.92,.12,237.02
2019.01.07-14:00,2.38,289.71,2.39,289.71,2.35,288.18,2.10,285.11,1.95,284.07,1.47,270.75,1.37,272.22,1.26,264.96,1.20,263.40,1.11,265.17,.93,262.92,.77,263.22,.54,260.10,.46,257.42,.49,256.54,.13,236.08
2019.01.07-15:00,2.27,289.21,2.28,289.15,2.27,287.49,2.09,283.06,1.94,282.78,1.59,268.74,1.40,270.31,1.33,265.38,1.25,264.16,1.13,266.35,.94,264.15,.77,263.77,.56,258.10,.49,256.01,.52,254.78,.13,235.81
2019.01.07-16:00,2.12,287.31,2.14,287.23,2.17,285.94,2.07,280.95,1.91,281.42,1.71,268.86,1.45,269.34,1.38,266.19,1.28,265.18,1.15,267.62,.94,265.26,.77,264.24,.58,256.89,.52,255.50,.55,254.09,.14,236.35
2019.01.07-17:00,2.01,284.66,2.03,284.63,2.08,283.93,2.07,279.44,1.89,279.96,1.80,270.57,1.51,269.13,1.40,266.77,1.28,266.46,1.16,268.87,.92,266.12,.75,264.53,.59,256.48,.52,255.71,.56,254.43,.14,237.21
2019.01.07-18:00,2.00,281.46,2.02,281.46,2.08,281.36,2.11,278.70,1.89,278.50,1.85,272.82,1.56,269.33,1.41,267.34,1.27,268.41,1.14,270.20,.88,266.68,.71,264.74,.58,256.89,.50,256.62,.54,255.76,.13,237.98
2019.01.07-19:00,2.07,278.78,2.09,278.85,2.15,279.46,2.16,278.96,1.90,277.40,1.85,275.01,1.57,269.80,1.40,269.05,1.24,271.15,1.10,271.67,.83,267.18,.65,264.86,.54,257.83,.46,257.85,.50,257.59,.12,237.70
2019.01.07-20:00,2.16,277.18,2.18,277.29,2.23,278.71,2.19,279.97,1.91,276.74,1.80,276.94,1.55,271.27,1.35,272.34,1.20,274.12,1.05,273.52,.78,268.20,.60,264.97,.50,258.91,.40,258.79,.44,259.07,.10,234.95
2019.01.07-21:00,2.26,276.58,2.28,276.67,2.30,278.56,2.18,281.07,1.93,276.46,1.73,278.55,1.52,274.41,1.27,276.06,1.14,276.80,.99,276.05,.74,269.97,.56,264.98,.46,259.66,.35,258.87,.38,259.28,.09,228.89
2019.01.07-22:00,2.34,276.74,2.37,276.79,2.36,278.69,2.18,281.97,1.96,276.77,1.67,279.60,1.48,278.50,1.19,278.51,1.08,278.90,.92,278.83,.69,271.93,.54,264.68,.43,260.21,.32,258.48,.34,258.23,.08,222.43
2019.01.07-23:00,2.39,277.03,2.43,277.05,2.41,278.75,2.17,282.39,2.00,277.68,1.62,279.79,1.43,281.93,1.13,279.14,1.04,280.31,.85,280.90,.66,273.43,.53,264.19,.43,261.15,.31,258.62,.32,256.83,.08,219.43
2019.01.07-24:00,2.41,277.23,2.45,277.22,2.44,278.59,2.15,282.06,2.04,278.94,1.60,278.97,1.39,283.47,1.10,278.23,1.00,280.61,.79,281.12,.63,274.09,.54,263.84,.45,262.71,.32,259.74,.32,255.85,.09,220.30
2019.01.08-01:00,2.41,277.46,2.46,277.43,2.48,278.36,2.13,280.89,2.05,280.07,1.62,277.56,1.37,283.22,1.09,276.17,.98,279.41,.74,278.87,.63,273.76,.56,263.66,.48,264.52,.34,261.31,.34,255.15,.10,222.58
2019.01.08-02:00,2.41,277.95,2.48,277.97,2.52,278.56,2.17,279.49,2.05,280.54,1.69,277.00,1.37,282.05,1.12,273.88,.97,277.34,.73,274.87,.63,272.41,.59,263.19,.51,265.79,.37,262.18,.37,253.75,.11,223.83
2019.01.08-03:00,2.43,278.59,2.50,278.63,2.55,279.21,2.24,278.56,2.05,280.27,1.78,277.62,1.36,280.43,1.17,272.16,.99,275.46,.75,270.78,.64,270.37,.62,262.41,.53,266.44,.39,262.38,.40,252.12,.12,224.68
2019.01.08-04:00,2.44,279.29,2.50,279.24,2.54,279.88,2.30,278.41,2.06,279.63,1.84,278.69,1.35,278.28,1.22,271.39,1.02,274.32,.79,267.73,.66,268.22,.65,261.57,.54,266.59,.41,262.22,.44,250.87,.12,225.49
2019.01.08-05:00,2.43,280.14,2.48,279.99,2.52,280.61,2.34,279.01,2.08,279.14,1.87,279.80,1.35,275.91,1.25,271.47,1.04,273.54,.84,265.84,.68,266.44,.67,260.96,.55,266.40,.43,261.86,.47,250.28,.13,226.21
2019.01.08-06:00,2.42,281.13,2.47,280.88,2.50,281.48,2.37,280.15,2.10,279.09,1.84,280.91,1.37,273.98,1.26,271.83,1.04,272.53,.88,265.14,.70,265.49,.69,260.88,.54,266.24,.43,261.47,.48,250.31,.13,226.50
2019.01.08-07:00,2.42,281.66,2.47,281.32,2.49,281.93,2.38,280.90,2.11,279.09,1.76,281.41,1.37,272.58,1.23,271.87,1.02,271.16,.90,265.50,.71,265.49,.69,261.68,.52,266.90,.41,261.94,.47,251.58,.13,227.11
2019.01.08-08:00,2.43,282.05,2.48,281.68,2.51,282.33,2.39,281.37,2.13,278.99,1.68,281.01,1.35,271.39,1.19,271.31,1.00,269.33,.90,266.10,.70,265.78,.67,263.01,.49,268.44,.38,263.49,.45,254.24,.12,228.62
2019.01.08-09:00,2.44,282.92,2.49,282.57,2.52,283.21,2.41,282.32,2.16,279.35,1.62,280.00,1.34,270.24,1.15,270.01,.98,266.97,.89,266.42,.69,265.94,.66,264.46,.46,270.21,.34,265.17,.42,257.43,.11,230.18
2019.01.08-10:00,2.43,284.02,2.49,283.69,2.51,284.10,2.40,283.57,2.19,280.24,1.58,278.27,1.35,269.40,1.13,268.01,.98,264.32,.88,266.55,.69,266.25,.64,266.11,.42,271.78,.30,266.16,.38,260.18,.10,230.40
2019.01.08-11:00,2.37,284.72,2.47,284.47,2.49,284.56,2.36,284.37,2.20,281.33,1.58,276.07,1.39,269.19,1.14,265.87,1.01,262.05,.88,266.65,.69,266.83,.63,267.96,.40,272.67,.27,265.76,.34,261.88,.09,229.28
2019.01.08-12:00,2.28,284.38,2.43,284.40,2.47,284.13,2.29,284.02,2.18,282.11,1.62,274.10,1.42,269.75,1.17,264.58,1.05,261.10,.89,267.02,.70,267.58,.62,269.58,.39,272.00,.25,262.85,.31,261.42,.08,227.10
2019.01.08-13:00,2.23,283.80,2.41,284.03,2.46,283.47,2.25,282.74,2.16,282.46,1.67,273.07,1.44,270.99,1.22,264.66,1.11,261.80,.90,267.62,.71,268.02,.61,270.13,.38,268.53,.25,256.17,.30,257.22,.09,223.26
2019.01.08-14:00,2.20,283.34,2.40,283.61,2.46,283.10,2.25,281.06,2.15,282.33,1.74,273.08,1.47,272.69,1.28,265.89,1.17,263.90,.92,268.33,.73,268.05,.61,269.36,.38,262.48,.27,247.59,.31,250.10,.09,219.15
2019.01.08-15:00,2.14,282.22,2.36,282.64,2.43,282.41,2.28,279.27,2.14,281.57,1.81,273.75,1.50,274.42,1.34,267.82,1.22,266.90,.95,269.16,.75,268.11,.61,267.84,.40,256.12,.31,240.71,.33,243.23,.11,216.47
2019.01.08-16:00,2.05,279.98,2.27,280.88,2.34,280.97,2.30,277.82,2.12,280.32,1.86,274.63,1.52,275.56,1.38,269.94,1.26,270.16,.98,270.19,.77,268.63,.61,266.36,.43,251.73,.34,237.48,.36,239.15,.11,216.25
2019.01.08-17:00,1.98,277.11,2.18,278.71,2.25,279.00,2.31,277.26,2.10,279.03,1.88,275.27,1.54,275.66,1.41,271.74,1.27,273.14,1.01,271.42,.79,269.63,.61,265.28,.45,249.53,.37,236.81,.38,237.51,.12,217.14
2019.01.08-18:00,1.96,274.10,2.17,276.57,2.23,276.99,2.33,277.42,2.09,277.98,1.88,275.31,1.55,274.90,1.41,273.06,1.25,275.56,1.02,272.92,.78,271.15,.59,264.65,.45,248.50,.36,236.57,.37,236.39,.11,216.79
2019.01.08-19:00,1.99,272.06,2.21,275.25,2.27,276.00,2.34,278.25,2.09,277.42,1.89,275.09,1.56,273.99,1.39,274.20,1.21,277.45,1.00,274.67,.75,273.07,.56,264.15,.43,247.77,.34,235.48,.35,234.36,.10,213.78
2019.01.08-20:00,2.03,271.41,2.28,275.13,2.34,276.31,2.35,279.68,2.09,277.37,1.88,275.22,1.55,273.74,1.34,275.55,1.15,279.00,.95,276.53,.70,275.03,.53,263.42,.41,247.12,.31,233.57,.31,231.19,.09,208.48
2019.01.08-21:00,2.06,271.17,2.34,275.49,2.40,277.11,2.34,281.09,2.09,277.57,1.86,275.85,1.52,274.51,1.28,277.17,1.08,280.29,.89,278.46,.63,276.80,.49,262.67,.39,247.36,.28,232.27,.28,228.13,.09,202.94
2019.01.08-22:00,2.05,270.12,2.37,275.51,2.42,277.55,2.31,281.88,2.09,277.79,1.84,276.87,1.50,276.31,1.23,278.92,1.02,281.38,.82,280.30,.57,277.99,.46,262.27,.37,249.28,.26,233.21,.26,226.66,.08,198.75
2019.01.08-23:00,2.03,268.40,2.40,275.22,2.44,277.42,2.28,282.08,2.10,277.97,1.82,278.04,1.48,278.93,1.18,280.59,.96,282.14,.75,281.51,.51,277.67,.45,261.97,.36,252.50,.24,236.54,.24,227.01,.08,196.55
2019.01.08-24:00,2.03,266.88,2.44,274.92,2.48,276.95,2.27,281.80,2.13,278.11,1.82,279.09,1.47,281.58,1.15,281.71,.92,282.22,.70,281.31,.48,275.06,.45,261.50,.37,256.19,.24,241.43,.23,228.77,.08,196.93
2019.01.09-01:00,2.04,265.87,2.47,274.41,2.52,276.18,2.26,280.95,2.16,278.21,1.84,279.82,1.47,283.31,1.13,281.89,.90,281.48,.66,279.32,.47,270.50,.47,260.97,.38,259.71,.25,246.96,.24,231.71,.08,200.32
2019.01.09-02:00,2.06,265.58,2.50,273.97,2.56,275.52,2.26,279.77,2.19,278.44,1.88,280.39,1.46,283.47,1.14,281.15,.90,280.03,.65,275.62,.48,265.16,.50,260.37,.40,262.42,.26,251.87,.25,234.87,.09,204.96
2019.01.09-03:00,2.12,266.70,2.56,274.41,2.62,275.69,2.29,278.77,2.23,278.97,1.91,281.00,1.47,282.17,1.16,279.61,.91,277.90,.67,270.89,.53,260.26,.53,259.61,.41,263.92,.28,255.21,.27,237.00,.10,208.73
2019.01.09-04:00,2.22,269.04,2.60,275.80,2.66,276.78,2.34,278.26,2.25,279.59,1.92,281.49,1.47,280.06,1.18,277.52,.92,275.17,.71,266.36,.59,256.84,.57,259.21,.42,264.69,.30,257.79,.29,238.92,.10,212.03
2019.01.09-05:00,2.29,271.88,2.60,277.70,2.64,278.46,2.36,278.36,2.24,280.17,1.90,281.73,1.47,277.81,1.20,275.31,.94,272.11,.77,262.98,.66,255.14,.62,259.50,.44,265.32,.31,260.55,.31,241.93,.11,216.10
2019.01.09-06:00,2.31,274.41,2.55,279.62,2.58,280.27,2.36,279.02,2.20,280.65,1.84,281.60,1.46,275.81,1.20,273.21,.96,269.00,.82,260.89,.73,254.61,.65,260.42,.45,266.26,.32,263.88,.33,246.28,.11,221.26
2019.01.09-07:00,2.32,275.66,2.52,280.68,2.55,281.36,2.39,279.66,2.19,280.48,1.79,280.54,1.45,274.09,1.19,271.24,.97,266.11,.86,260.00,.77,254.97,.66,261.99,.44,268.02,.31,268.19,.33,251.34,.10,226.17
2019.01.09-08:00,2.33,276.04,2.51,281.24,2.53,282.03,2.42,280.49,2.19,279.99,1.74,278.90,1.44,272.94,1.18,269.66,.99,263.96,.88,260.20,.79,256.23,.65,263.96,.41,270.04,.28,272.93,.30,256.47,.09,230.14
2019.01.09-09:00,2.34,276.63,2.50,281.79,2.51,282.83,2.43,281.70,2.19,279.61,1.71,277.30,1.43,272.46,1.17,268.62,1.00,262.91,.89,261.30,.79,258.33,.62,265.92,.36,271.19,.23,276.80,.26,260.71,.07,232.34
2019.01.09-10:00,2.36,277.93,2.50,282.58,2.50,283.70,2.42,283.11,2.19,279.56,1.71,276.09,1.41,272.40,1.16,268.02,1.02,262.88,.89,262.92,.79,260.92,.59,267.51,.31,270.30,.18,277.71,.21,262.47,.06,230.72
2019.01.09-11:00,2.38,279.21,2.51,283.11,2.50,283.99,2.38,284.00,2.20,279.71,1.73,275.30,1.40,272.49,1.17,267.93,1.04,263.81,.88,264.99,.78,263.93,.55,268.76,.28,266.90,.13,272.27,.17,260.43,.04,224.50
2019.01.09-12:00,2.41,279.88,2.52,283.03,2.49,283.49,2.33,283.77,2.19,279.67,1.76,274.82,1.39,272.45,1.18,268.23,1.06,265.37,.88,267.17,.77,267.10,.53,269.67,.26,261.86,.11,257.67,.15,254.11,.04,216.82
2019.01.09-13:00,2.45,280.21,2.54,282.78,2.51,282.82,2.29,282.64,2.18,279.57,1.80,274.85,1.39,272.25,1.20,268.80,1.08,267.10,.88,268.82,.76,269.68,.51,269.60,.27,256.25,.12,239.67,.15,244.28,.04,211.64
2019.01.09-14:00,2.49,280.62,2.57,282.78,2.54,282.54,2.29,281.31,2.18,279.59,1.84,275.56,1.41,272.06,1.24,269.69,1.10,268.89,.89,269.74,.76,271.18,.50,267.86,.30,250.31,.15,227.09,.17,233.11,.05,208.07
2019.01.09-15:00,2.51,280.99,2.57,282.91,2.55,282.57,2.31,280.20,2.18,279.53,1.88,276.69,1.46,271.97,1.30,270.87,1.14,270.65,.91,270.36,.75,271.70,.50,264.45,.33,244.83,.20,220.69,.20,224.08,.06,206.02
2019.01.09-16:00,2.48,281.22,2.53,282.92,2.52,282.61,2.33,279.45,2.18,279.07,1.92,277.67,1.52,271.88,1.36,272.09,1.18,272.15,.95,271.00,.75,271.61,.50,260.34,.37,241.39,.25,218.98,.24,219.31,.08,206.06
2019.01.09-17:00,2.41,281.52,2.45,282.91,2.45,282.70,2.32,279.33,2.17,278.50,1.94,278.20,1.60,272.05,1.41,273.16,1.21,273.26,.98,271.76,.75,271.20,.51,256.75,.41,240.54,.29,220.45,.27,218.25,.08,207.59
2019.01.09-18:00,2.32,281.71,2.35,282.85,2.35,282.70,2.30,279.62,2.17,278.22,1.94,278.22,1.67,273.00,1.45,274.19,1.23,274.18,1.01,272.82,.74,270.72,.53,254.37,.44,241.55,.31,223.72,.28,219.40,.08,209.67
2019.01.09-19:00,2.24,281.80,2.27,282.73,2.27,282.50,2.27,279.94,2.16,278.23,1.93,277.97,1.71,274.87,1.45,275.46,1.22,275.33,1.00,274.44,.72,270.40,.54,253.20,.45,243.49,.32,227.81,.29,221.49,.08,211.62
2019.01.09-20:00,2.21,282.02,2.24,282.77,2.24,282.37,2.27,280.31,2.17,278.53,1.92,277.97,1.71,277.28,1.42,277.11,1.19,277.07,.95,276.55,.68,270.10,.54,252.59,.44,245.24,.31,231.08,.28,222.40,.07,210.91
2019.01.09-21:00,2.18,282.61,2.21,283.17,2.21,282.59,2.27,281.06,2.18,279.31,1.92,278.59,1.67,280.02,1.36,279.11,1.13,279.36,.89,278.93,.64,269.62,.54,252.87,.42,247.44,.29,234.98,.26,223.72,.06,209.73
2019.01.09-22:00,2.16,282.71,2.18,283.06,2.19,282.37,2.26,281.65,2.19,280.29,1.92,279.76,1.61,282.69,1.30,281.21,1.06,281.83,.82,281.21,.59,268.87,.53,254.23,.40,250.50,.27,240.02,.24,225.82,.06,208.80